Location: Waco, TX
(31.5481°N, 97.1672°W)
Time: 16:47:24
(UTC-06:00)

N. Korean satellite - Visible Passes

Search period start: 20 January 2018 00:00
Search period end: 30 January 2018 00:00
Orbit: 459 x 515 km, 97.2° (Epoch: 19 January)

Date Brightness Start Highest point End Pass type
(mag) Time Alt. Az. Time Alt. Az. Time Alt. Az.
20 Jan 10.0 19:31:56 10° WSW 19:33:35 13° W 19:35:14 10° WNW visible
21 Jan 6.8 07:01:53 10° NNE 07:05:20 74° ESE 07:08:46 10° S visible
21 Jan 9.0 19:06:45 10° SSW 19:09:50 26° W 19:12:54 10° NW visible
22 Jan 8.7 06:38:33 10° NE 06:41:39 30° E 06:44:44 10° SSE visible
22 Jan 7.2 18:42:34 10° S 18:46:09 60° W 18:49:40 10° NNW visible
23 Jan 9.9 06:15:57 10° ENE 06:17:53 14° E 06:19:50 10° SE visible
23 Jan 6.6 18:18:59 10° SSE 18:22:31 57° ENE 18:26:00 10° N visible
24 Jan 10.0 19:30:44 10° WSW 19:32:24 13° W 19:34:04 10° WNW visible
25 Jan 8.9 19:05:35 10° SSW 19:08:38 27° W 19:11:41 10° NW visible
26 Jan 8.8 06:37:20 10° NE 06:40:25 30° E 06:43:32 10° SSE visible
26 Jan 7.1 18:41:25 10° S 18:44:57 62° W 18:48:26 10° NNW visible
27 Jan 9.9 06:14:45 10° ENE 06:16:40 14° E 06:18:35 10° SE visible
27 Jan 6.6 18:17:50 10° SSE 18:21:18 54° ENE 18:24:44 10° N visible
28 Jan 10.0 19:29:29 10° WSW 19:31:10 13° W 19:32:52 10° WNW visible
29 Jan 8.9 19:04:21 10° SSW 19:07:25 27° W 19:10:26 10° NW visible
